Погода в Тукупите

Венесуэла     9°03′32″N   62°02′33″W
темп.,
°C
ветер,
м/с
пор.,
м/с
влажн.,
%
обл.,
%
осадки,
мм/ч
давл.,
гПа
погр.,
м
26 февраля, пт
пт2623:00+21св299952 0.0 1014328
02:00+21св169973 0.2 1012217
05:00+21всв1299100 0.2 101248
08:00+23всв149595 0.5 1014237
11:00+26в368483 1.7 1014889
14:00+26всв248580 4.7 1010681
17:00+25св2789100 2.0 1010798
20:00+22св2109893 2.1 1012523
27 февраля, сб
сб2723:00+21св2109992 0.0 1013429
02:00+21св159995 0.1 1012174
05:00+20св1399100 0.1 1012111
08:00+23всв2694100 0.1 1014361
11:00+29всв366027 0.1 10141380
14:00+29всв356541 1.5 10111141
17:00+25всв377987 0.9 1010825
20:00+22всв179679 1.0 1012278
28 февраля, вс
вс2823:00+21св299810 0.0 1013305
02:00+20св139910 0.1 1012154
05:00+20св129922 0.1 101180
08:00+23св269032 0.2 1014370
11:00+26всв368172 1.5 1013984
14:00+26св367776 3.8 1010948
17:00+25св378117 1.4 1009828
20:00+21всв289759 1.8 1011305
1 марта, пн
пн123:00+20всв189873 0.0 1012271
02:00+20св159957 0.1 1011170
05:00+19св129912 0.1 101042
08:00+22св139117 0.1 1012224
11:00+28всв35608 0.3 10131318
14:00+28всв475825 1.0 10091268
17:00+27всв36680 0.3 10081035
20:00+22св210880 0.4 1010474
2 марта, вт
вт223:00+20всв17970 0.0 1012259
02:00+20св14993 0.0 1011132
05:00+19в11994 0.0 101123
08:00+23всв13834 0.0 1013275
11:00+29в25510 0.0 10141558
14:00+31св34460 0.1 10101910
17:00+29св355963 0.1 10091258
20:00+23св2108245 0.1 1012413